Tracking 31027 objects as of 19-Jul-2025
HD Live streaming from Space Station
objects crossing your sky now

SL-12 R/B(2)

Track SL-12 R/B(2) now!


NORAD ID: 21925
Int'l Code: 1992-017D
Perigee: 35,480.4 km
Apogee: 35,652.4 km
Inclination: 13.3 °
Period: 1,424.5 minutes
Semi major axis: 41937 km
RCS: 2.8091 m2 (large)
Launch date: April 2, 1992
Source: Commonwealth of Independent States (former USSR) (CIS)
Launch site: TYURATAM MISSILE AND SPACE COMPLEX (TTMTR)

Note: This is a ROCKET BODY
Your satellite tracking list
IRIDIUM 106
Track 1 satellite(s)




NASA's NSSDC Master Catalog

Two Line Element Set (TLE):
1 21925U 92017D   25199.30050641  .00000072  00000-0  00000-0 0  9992
2 21925  13.3184 343.0277 0020510  66.1684 195.4248  1.01088168121938
Source of the keplerian elements: AFSPC